GW2195 Weather Reports


Display with metric or nautical units.
time (UTC)temp
F
wind
direction
speed
MPH
gust
MPH
rain 1hr
in
rain 24hr
in
rain mn
in
humidity
%
barometer
mb
20260508080545 51 171 0.0 1.0 0.04 0.53 0.52 95 1008.7
20260508080106 51 103 0.0 0.0 0.07 0.53 0.52 94 1008.6
20260508075549 50 144 0.0 0.0 0.12 0.53 0.52 94 1008.7
20260508075037 50 144 0.0 0.0 0.13 0.53 0.52 94 1008.8
20260508074600 50 144 0.0 0.0 0.13 0.53 0.52 94 1008.7
20260508074051 49 76 0.0 0.0 0.18 0.53 0.52 94 1008.9
20260508073537 49 76 0.0 0.0 0.24 0.53 0.52 94 1008.8
20260508073003 49 15 0.0 0.0 0.31 0.53 0.52 94 1008.8
20260508072553 49 15 0.0 1.0 0.41 0.53 0.52 94 1008.8
20260508072043 49 15 0.0 1.0 0.44 0.53 0.52 94 1008.8
20260508071507 49 23 0.0 1.0 0.45 0.53 0.52 93 1008.8
20260508071052 49 74 0.0 3.0 0.44 0.52 0.51 93 1008.9
20260508070541 49 65 0.0 3.0 0.43 0.49 0.48 93 1008.9
20260508070105 49 38 0.0 0.0 0.39 0.45 0.44 93 1009.1
20260508065548 49 316 0.0 1.0 0.35 0.41 0.40 93 1009.0
20260508065037 49 327 0.0 1.0 0.35 0.40 0.39 93 1008.9
20260508064507 49 342 0.0 4.0 0.33 0.39 0.38 93 1009.0
20260508064057 49 316 0.0 5.0 0.28 0.35 0.34 93 1008.9
20260508063544 49 188 0.0 5.0 0.23 0.28 0.28 93 1009.7
20260508063002 49 187 0.0 3.0 0.14 0.20 0.19 93 1009.5
20260508062553 49 201 0.0 3.0 0.06 0.12 0.11 93 1009.3
20260508062041 49 263 0.0 5.0 0.03 0.09 0.08 93 1008.7
20260508061514 49 341 0.0 6.0 0.02 0.08 0.07 92 1008.5
20260508061101 49 323 2.0 6.0 0.02 0.08 0.07 92 1008.3
20260508060549 50 71 0.0 3.0 0.01 0.06 0.06 92 1008.9
20260508060016 50 229 0.0 5.0 0.00 0.06 0.05 92 1008.9
20260508055559 50 218 3.0 5.0 0.00 0.06 0.05 92 1008.7
20260508055043 50 180 0.0 1.0 0.00 0.06 0.05 92 1008.2
20260508054503 50 46 0.0 0.0 0.00 0.06 0.05 92 1008.0
20260508054054 50 69 0.0 0.0 0.00 0.06 0.05 92 1007.9
20260508053542 50 70 0.0 0.0 0.00 0.06 0.05 92 1007.9
20260508053009 49 70 0.0 0.0 0.00 0.06 0.05 92 1007.9
20260508052557 50 70 0.0 0.0 0.00 0.06 0.05 92 1007.7
20260508052045 49 71 0.0 0.0 0.00 0.06 0.05 91 1007.7
20260508051504 49 56 0.0 0.0 0.00 0.06 0.05 91 1007.6
20260508051054 49 56 0.0 0.0 0.00 0.06 0.05 91 1007.6
20260508050542 49 30 0.0 2.0 0.01 0.06 0.05 91 1007.7
20260508050000 49 25 0.0 2.0 0.01 0.06 0.05 91 1007.5
20260508045551 50 50 0.0 2.0 0.02 0.06 0.05 91 1007.6
20260508045041 50 19 0.0 1.0 0.05 0.06 0.05 91 1007.8
20260508044509 50 40 0.0 1.0 0.05 0.06 0.05 90 1007.9
20260508044059 50 30 0.0 1.0 0.05 0.06 0.05 90 1007.9
20260508043548 50 344 0.0 1.0 0.05 0.06 0.05 89 1007.9
20260508043006 50 355 0.0 1.0 0.05 0.06 0.05 89 1008.1
20260508042559 50 344 0.0 1.0 0.05 0.06 0.05 88 1008.0
20260508042046 50 253 0.0 2.0 0.05 0.06 0.05 88 1007.8
20260508041504 50 234 0.0 3.0 0.05 0.06 0.05 88 1007.6
20260508041054 50 209 0.0 3.0 0.05 0.06 0.05 88 1007.5
20260508040543 50 171 0.0 7.0 0.04 0.05 0.04 88 1007.5
20260508040002 51 17 3.0 7.0 0.04 0.05 0.04 86 1007.6
20260508035551 51 5 3.0 5.0 0.03 0.04 0.03 85 1007.8
20260508035036 51 28 0.0 0.0 0.00 0.01 0.00 82 1008.4
20260508034508 51 5 0.0 0.0 0.00 0.01 0.00 82 1008.5
20260508034056 51 5 0.0 2.0 0.00 0.01 0.00 82 1008.3
20260508033544 51 350 0.0 2.0 0.00 0.01 0.00 82 1008.2
20260508033003 51 355 0.0 2.0 0.00 0.01 0.00 82 1008.1
20260508032554 51 336 0.0 2.0 0.00 0.01 0.00 81 1008.2
20260508032042 51 345 0.0 1.0 0.00 0.01 0.00 80 1008.3
20260508031501 51 344 0.0 1.0 0.00 0.01 0.00 82 1008.4
20260508031052 51 17 0.0 0.0 0.00 0.01 0.00 83 1008.3
20260508030541 51 17 0.0 0.0 0.00 0.01 0.00 82 1008.3
20260508030007 51 17 0.0 0.0 0.00 0.01 0.00 81 1008.2
20260508025557 51 17 0.0 0.0 0.00 0.01 0.00 81 1008.1
20260508025045 51 16 0.0 0.0 0.00 0.01 0.00 81 1008.0
20260508024505 51 355 0.0 0.0 0.00 0.01 0.00 82 1008.2
20260508024059 51 355 0.0 0.0 0.00 0.01 0.00 82 1008.3
20260508023544 51 355 0.0 0.0 0.00 0.01 0.00 82 1008.3
20260508023005 51 355 0.0 0.0 0.00 0.01 0.00 83 1008.3
20260508022552 51 355 0.0 0.0 0.00 0.01 0.00 82 1008.3
20260508022041 51 355 0.0 0.0 0.00 0.01 0.00 83 1008.3
20260508021515 51 355 0.0 0.0 0.00 0.01 0.00 83 1008.2
20260508021100 52 355 0.0 0.0 0.00 0.01 0.00 83 1008.1
20260508020549 52 355 0.0 0.0 0.00 0.01 0.00 83 1008.3
20260508020010 52 355 0.0 1.0 0.00 0.01 0.00 83 1008.5
20260508015558 51 5 0.0 1.0 0.00 0.01 0.00 84 1008.5
20260508015045 51 28 0.0 0.0 0.00 0.01 0.00 83 1008.5
20260508014504 51 28 0.0 0.0 0.00 0.01 0.00 82 1008.5
20260508014054 51 28 0.0 1.0 0.00 0.01 0.00 82 1008.6
20260508013542 51 28 0.0 1.0 0.00 0.01 0.00 83 1008.6
20260508013109 51 46 0.0 0.0 0.00 0.01 0.00 83 1008.7
20260508012551 51 46 0.0 0.0 0.00 0.01 0.00 82 1008.7
20260508012039 51 46 0.0 1.0 0.00 0.01 0.00 82 1008.7
20260508011513 51 46 0.0 1.0 0.00 0.01 0.00 83 1008.7
20260508011102 51 69 0.0 0.0 0.00 0.01 0.00 84 1008.9
20260508010547 51 69 0.0 0.0 0.00 0.01 0.00 84 1008.9
20260508010006 51 69 0.0 0.0 0.00 0.01 0.00 83 1008.9
20260508005557 51 69 0.0 0.0 0.00 0.01 0.00 83 1008.9
20260508005044 51 69 0.0 0.0 0.00 0.01 0.00 83 1009.1
20260508004505 51 69 0.0 0.0 0.00 0.01 0.00 83 1009.0
20260508004056 51 69 0.0 1.0 0.00 0.01 0.00 84 1009.2
20260508003543 50 69 0.0 1.0 0.00 0.01 0.00 84 1009.5
20260508003007 50 27 0.0 0.0 0.00 0.01 0.00 84 1009.5
20260508002558 50 27 0.0 0.0 0.00 0.01 0.00 84 1009.4
20260508002046 50 27 0.0 0.0 0.00 0.01 0.00 83 1009.3
20260508001515 50 27 0.0 0.0 0.00 0.01 0.00 83 1009.3
20260508001056 50 27 0.0 1.0 0.00 0.01 0.00 84 1009.4
20260508000545 50 28 0.0 1.0 0.00 0.01 0.00 83 1009.5
20260508000005 51 22 0.0 0.0 0.00 0.01 0.00 82 1009.5
20260507235553 51 22 0.0 0.0 0.00 0.01 0.00 82 1009.5
20260507235041 51 55 0.0 0.0 0.00 0.01 0.00 81 1009.6
20260507234501 51 9 0.0 0.0 0.00 0.01 0.00 81 1009.8
20260507234052 51 9 0.0 1.0 0.00 0.01 0.00 81 1009.7
20260507233541 52 30 0.0 1.0 0.00 0.01 0.00 80 1009.9
20260507233101 52 21 0.0 1.0 0.00 0.01 0.00 80 1010.0
20260507232548 53 55 0.0 0.0 0.00 0.01 0.00 79 1010.0
20260507232036 53 5 0.0 1.0 0.00 0.01 0.00 78 1010.1
20260507231510 53 5 0.0 1.0 0.00 0.01 0.00 77 1010.1
20260507231059 53 51 0.0 1.0 0.00 0.01 0.00 77 1010.1
20260507230544 54 20 0.0 0.0 0.00 0.01 0.00 77 1010.1
20260507230004 54 19 0.0 0.0 0.00 0.01 0.01 76 1010.4
20260507225552 54 19 0.0 0.0 0.00 0.01 0.01 76 1010.3
20260507225040 54 360 0.0 1.0 0.00 0.01 0.01 75 1010.4
20260507224520 54 5 0.0 1.0 0.00 0.01 0.01 75 1010.4
20260507224101 55 351 0.0 1.0 0.00 0.01 0.01 75 1010.5
20260507223548 55 317 0.0 3.0 0.00 0.01 0.01 74 1010.4
20260507223007 55 346 0.0 3.0 0.00 0.01 0.01 74 1010.4
20260507222558 55 332 0.0 3.0 0.00 0.01 0.01 74 1010.4
20260507222049 55 343 0.0 2.0 0.00 0.01 0.01 74 1010.4
20260507221511 55 9 0.0 2.0 0.00 0.01 0.01 74 1010.4
20260507221056 55 346 0.0 1.0 0.00 0.01 0.01 74 1010.4
20260507220546 55 360 0.0 1.0 0.00 0.01 0.01 74 1010.4
20260507220011 55 22 0.0 2.0 0.00 0.01 0.01 75 1010.4
20260507215602 55 346 0.0 2.0 0.00 0.01 0.01 76 1010.4
20260507215051 55 328 0.0 2.0 0.00 0.01 0.01 77 1010.4
20260507214509 55 355 0.0 1.0 0.00 0.01 0.01 78 1010.4
20260507214100 55 345 0.0 1.0 0.00 0.01 0.01 78 1010.4
20260507213548 55 338 0.0 1.0 0.00 0.01 0.01 78 1010.4
20260507213006 55 42 0.0 0.0 0.00 0.01 0.01 77 1010.2
20260507212555 55 43 0.0 0.0 0.00 0.01 0.01 78 1010.3
20260507212043 55 44 0.0 0.0 0.00 0.01 0.01 77 1010.2
20260507211508 56 42 0.0 0.0 0.00 0.01 0.01 75 1010.1
20260507211051 56 24 0.0 0.0 0.00 0.01 0.01 76 1010.0
20260507210538 56 24 0.0 3.0 0.00 0.01 0.01 74 1009.9
20260507210059 56 19 0.0 4.0 0.00 0.01 0.01 74 1009.7
20260507205548 56 350 1.0 4.0 0.00 0.01 0.01 74 1009.7
20260507205035 56 11 0.0 1.0 0.00 0.01 0.01 74 1009.6
20260507204505 57 342 0.0 1.0 0.00 0.01 0.01 73 1009.4
20260507204056 57 224 0.0 1.0 0.00 0.01 0.01 73 1009.3
20260507203544 57 355 0.0 1.0 0.00 0.01 0.01 72 1009.1
20260507203002 57 360 0.0 1.0 0.00 0.01 0.01 71 1009.1
20260507202552 58 355 0.0 1.0 0.00 0.01 0.01 71 1009.0
20260507202041 58 340 0.0 1.0 0.00 0.01 0.01 71 1009.0
20260507201502 58 5 0.0 1.0 0.00 0.01 0.01 70 1008.8
20260507201052 58 22 0.0 2.0 0.00 0.01 0.01 70 1008.8
20260507200540 59 344 0.0 2.0 0.00 0.01 0.01 69 1008.7
20260507200008 59 345 0.0 4.0 0.00 0.01 0.01 68 1008.7
20260507195558 59 341 0.0 4.0 0.00 0.01 0.01 68 1008.7
20260507195046 60 330 1.0 4.0 0.00 0.01 0.01 66 1008.6
20260507194506 60 360 0.0 3.0 0.00 0.01 0.01 66 1008.5
20260507194056 60 346 0.0 4.0 0.00 0.01 0.01 66 1008.4
20260507193544 61 329 0.0 4.0 0.00 0.01 0.01 64 1008.4
20260507193012 61 30 0.0 4.0 0.00 0.01 0.01 64 1008.3
20260507192601 61 5 0.0 3.0 0.00 0.01 0.01 64 1008.2
20260507192049 61 5 1.0 6.0 0.00 0.01 0.01 63 1008.2
20260507191516 62 321 1.0 6.0 0.00 0.01 0.01 62 1008.2
20260507191100 62 5 0.0 2.0 0.00 0.01 0.01 62 1008.1
20260507190549 62 355 0.0 3.0 0.00 0.01 0.01 61 1008.0
20260507190007 63 5 0.0 3.0 0.00 0.01 0.01 60 1007.9
20260507185558 63 13 0.0 3.0 0.00 0.01 0.01 59 1007.8
20260507185046 64 92 0.0 3.0 0.00 0.01 0.01 58 1007.8
20260507184505 64 282 0.0 5.0 0.00 0.01 0.01 57 1007.7
20260507184056 64 5 0.0 5.0 0.00 0.01 0.01 57 1007.7
20260507183544 65 307 0.0 3.0 0.00 0.01 0.01 56 1007.6
20260507183108 65 346 0.0 6.0 0.00 0.01 0.01 54 1007.6
20260507182551 65 12 1.0 6.0 0.00 0.01 0.01 53 1007.5
20260507182040 66 89 0.0 6.0 0.00 0.01 0.01 52 1007.5
20260507181509 66 263 0.0 4.0 0.00 0.01 0.01 51 1007.4
20260507181102 67 276 0.0 4.0 0.00 0.01 0.01 50 1007.5
20260507180547 67 235 0.0 6.0 0.00 0.01 0.01 48 1007.4
20260507180004 67 230 2.0 6.0 0.00 0.01 0.01 48 1007.4
20260507175554 67 211 0.0 5.0 0.00 0.01 0.01 48 1007.4
20260507175042 67 49 0.0 5.0 0.00 0.01 0.01 47 1007.3
20260507174505 67 196 1.0 4.0 0.00 0.01 0.01 46 1007.3
20260507174052 68 66 0.0 5.0 0.00 0.01 0.01 47 1007.3
20260507173543 68 303 0.0 5.0 0.00 0.01 0.01 47 1007.4
20260507173109 68 328 0.0 3.0 0.00 0.01 0.01 45 1007.5
20260507172552 69 25 0.0 3.0 0.00 0.01 0.01 45 1007.3
20260507172040 69 228 0.0 3.0 0.00 0.01 0.01 46 1007.4
20260507171600 69 5 0.0 3.0 0.00 0.01 0.01 44 1007.3
20260507171048 69 335 1.0 3.0 0.00 0.01 0.01 45 1007.4
20260507170537 69 44 0.0 4.0 0.00 0.01 0.01 45 1007.3
20260507170011 69 167 1.0 7.0 0.00 0.01 0.01 46 1007.3
20260507165554 69 269 1.0 7.0 0.00 0.01 0.01 45 1007.2
20260507165043 69 340 2.0 10.0 0.00 0.01 0.01 45 1007.2
20260507164511 70 178 5.0 10.0 0.00 0.01 0.01 44 1007.2
20260507164104 70 191 1.0 5.0 0.00 0.01 0.01 43 1007.2
20260507163552 70 259 0.0 7.0 0.00 0.01 0.01 46 1007.2
20260507163006 70 298 0.0 5.0 0.00 0.01 0.01 47 1007.3
20260507162557 69 171 2.0 5.0 0.00 0.01 0.01 47 1007.3
20260507162046 69 278 0.0 2.0 0.00 0.01 0.01 47 1007.3
20260507161505 68 245 0.0 3.0 0.01 0.01 0.01 48 1007.3
20260507161054 68 244 0.0 4.0 0.01 0.01 0.01 50 1007.4
20260507160542 67 315 1.0 4.0 0.01 0.01 0.01 50 1007.4
20260507160103 66 224 0.0 4.0 0.01 0.01 0.01 50 1007.4
20260507155550 66 205 0.0 2.0 0.01 0.01 0.01 52 1007.5
20260507155044 64 246 0.0 1.0 0.01 0.01 0.01 53 1007.5
20260507154508 63 61 0.0 1.0 0.01 0.01 0.01 61 1007.5
20260507154057 63 61 0.0 1.0 0.01 0.01 0.01 59 1007.5
20260507153544 62 5 0.0 1.0 0.01 0.01 0.01 60 1007.6
20260507153000 62 355 0.0 2.0 0.01 0.01 0.01 66 1007.7
20260507152552 62 34 0.0 2.0 0.01 0.01 0.01 72 1007.7
20260507152039 63 109 0.0 2.0 0.01 0.01 0.01 68 1007.8
20260507151601 63 49 0.0 4.0 0.00 0.00 0.00 64 1007.9
20260507151049 64 92 0.0 6.0 0.00 0.00 0.00 62 1008.0
20260507150539 65 190 2.0 6.0 0.00 0.00 0.00 52 1008.1
20260507150005 66 144 1.0 6.0 0.00 0.00 0.00 50 1008.1
20260507145556 66 136 0.0 5.0 0.00 0.00 0.00 49 1007.9
20260507145043 66 140 2.0 5.0 0.00 0.00 0.00 48 1008.1
20260507144504 65 167 1.0 10.0 0.00 0.00 0.00 49 1008.2
20260507144054 65 168 2.0 10.0 0.00 0.00 0.00 52 1008.2
20260507143541 64 90 1.0 8.0 0.00 0.00 0.00 55 1008.2
20260507143108 64 11 1.0 10.0 0.00 0.00 0.00 56 1008.2
20260507142550 63 102 2.0 14.0 0.00 0.00 0.00 56 1008.2
20260507142038 62 65 2.0 14.0 0.00 0.00 0.00 60 1008.2
20260507141508 60 317 4.0 12.0 0.00 0.00 0.00 63 1008.2
20260507141059 60 203 3.0 12.0 0.00 0.00 0.00 65 1008.4
20260507140548 59 73 5.0 10.0 0.00 0.00 0.00 67 1008.4
20260507140007 59 27 2.0 10.0 0.00 0.00 0.00 66 1008.4
20260507135555 59 27 3.0 11.0 0.00 0.00 0.00 65 1008.5
20260507135044 60 57 4.0 13.0 0.00 0.00 0.00 64 1008.6
20260507134513 60 109 5.0 13.0 0.00 0.00 0.00 62 1008.6
20260507134001 60 44 5.0 12.0 0.00 0.00 0.00 61 1008.6
20260507133552 60 32 4.0 12.0 0.00 0.00 0.00 62 1008.7
20260507133010 61 10 4.0 11.0 0.00 0.00 0.00 62 1008.8
20260507132600 61 149 4.0 11.0 0.00 0.00 0.00 61 1008.7
20260507132051 61 142 5.0 11.0 0.00 0.00 0.00 59 1008.8
20260507131509 62 156 2.0 8.0 0.00 0.00 0.00 60 1008.7
20260507131059 62 138 0.0 13.0 0.00 0.00 0.00 56 1008.8
20260507130547 63 130 5.0 13.0 0.00 0.00 0.00 50 1008.9
20260507130005 63 146 2.0 19.0 0.00 0.00 0.00 51 1008.8
20260507125556 64 107 7.0 19.0 0.00 0.00 0.00 53 1008.9
20260507125042 65 157 6.0 15.0 0.00 0.00 0.00 52 1008.9
20260507124503 66 175 5.0 8.0 0.00 0.00 0.00 48 1008.8
20260507124053 66 217 1.0 6.0 0.00 0.00 0.00 46 1008.6
20260507123542 66 175 3.0 8.0 0.00 0.00 0.00 45 1008.6
20260507123010 67 248 4.0 9.0 0.00 0.00 0.00 45 1008.7
20260507122559 67 271 1.0 9.0 0.00 0.00 0.00 44 1008.7
20260507122049 67 184 1.0 8.0 0.00 0.00 0.00 46 1008.7
20260507121507 68 178 3.0 12.0 0.00 0.00 0.00 45 1008.7
20260507121102 68 190 5.0 12.0 0.00 0.00 0.00 48 1008.8
20260507120546 68 177 2.0 8.0 0.00 0.00 0.00 47 1008.9
20260507120004 68 218 2.0 9.0 0.00 0.00 0.00 48 1008.9
20260507115554 67 166 3.0 9.0 0.00 0.00 0.00 48 1009.0
20260507115041 67 289 4.0 9.0 0.00 0.00 0.00 51 1009.1
20260507114501 67 222 2.0 8.0 0.00 0.00 0.00 53 1009.1
20260507114053 67 296 1.0 7.0 0.00 0.00 0.00 55 1009.3
20260507113544 66 190 1.0 12.0 0.00 0.00 0.00 54 1009.3
20260507113101 66 261 5.0 12.0 0.00 0.00 0.00 54 1009.3
20260507112549 66 159 1.0 5.0 0.00 0.00 0.00 53 1009.4
20260507112042 65 206 3.0 7.0 0.00 0.00 0.00 54 1009.4
20260507111509 65 209 3.0 7.0 0.00 0.00 0.00 57 1009.5
20260507111056 64 180 0.0 4.0 0.00 0.00 0.00 58 1009.4
20260507110544 64 281 0.0 4.0 0.00 0.00 0.00 58 1009.6
20260507110003 64 19 1.0 4.0 0.00 0.00 0.00 56 1009.6
20260507105553 64 242 0.0 6.0 0.00 0.00 0.00 57 1009.7
20260507105041 64 202 3.0 6.0 0.00 0.00 0.00 58 1009.7
20260507104511 63 225 1.0 9.0 0.00 0.00 0.00 58 1009.8
20260507104102 63 122 2.0 10.0 0.00 0.00 0.00 60 1009.7
20260507103552 62 103 1.0 5.0 0.00 0.00 0.00 62 1009.7
20260507103008 62 205 2.0 5.0 0.00 0.00 0.00 62 1009.7
20260507102601 61 105 1.0 5.0 0.00 0.00 0.00 65 1009.8
20260507102047 61 172 2.0 9.0 0.00 0.00 0.00 63 1009.8
20260507101507 60 142 3.0 9.0 0.00 0.00 0.00 64 1009.9
20260507101100 60 156 4.0 8.0 0.00 0.00 0.00 65 1009.9
20260507100547 60 161 4.0 9.0 0.00 0.00 0.00 67 1009.8
20260507100015 60 176 5.0 8.0 0.00 0.00 0.00 66 1009.9
20260507095603 60 205 2.0 7.0 0.00 0.00 0.00 68 1009.9
20260507095051 59 119 3.0 7.0 0.00 0.00 0.00 68 1009.9
20260507094509 59 180 4.0 8.0 0.00 0.00 0.00 69 1009.9
20260507094101 59 165 3.0 8.0 0.00 0.00 0.00 71 1009.9
20260507093549 58 141 2.0 8.0 0.00 0.00 0.00 72 1009.8
20260507093014 58 174 3.0 8.0 0.00 0.00 0.00 71 1009.8
20260507092600 58 184 4.0 8.0 0.00 0.00 0.00 71 1009.9
20260507092046 57 143 2.0 10.0 0.00 0.00 0.00 72 1009.8
20260507091507 57 178 4.0 8.0 0.00 0.00 0.00 72 1009.8
20260507091057 57 141 1.0 7.0 0.00 0.00 0.00 73 1009.7
20260507090545 56 80 1.0 9.0 0.00 0.00 0.00 74 1009.6
20260507090006 56 31 3.0 8.0 0.00 0.00 0.00 74 1009.7
20260507085555 55 159 2.0 7.0 0.00 0.00 0.00 75 1009.7
20260507085042 55 186 2.0 7.0 0.00 0.00 0.00 76 1009.8
20260507084507 54 146 0.0 6.0 0.00 0.00 0.00 78 1009.9
20260507084053 53 177 0.0 6.0 0.00 0.00 0.00 79 1010.0
20260507083541 53 325 0.0 3.0 0.00 0.00 0.00 80 1010.0
20260507083103 53 348 0.0 3.0 0.00 0.00 0.00 79 1010.0
20260507082549 53 215 0.0 4.0 0.00 0.00 0.00 79 1010.1
20260507082038 53 223 2.0 5.0 0.00 0.00 0.00 79 1010.1
20260507081510 53 194 2.0 5.0 0.00 0.00 0.00 79 1010.0
20260507081058 53 169 2.0 5.0 0.00 0.00 0.00 79 1009.9